Volver al catálogo

JAM-E JAM 1

ActivoComunicacionesGEO
NORAD 67757·PAYLOAD·🇮🇷 Iran

Lanzado Feb 12, 2026 desde Baikonur Cosmodrome

Loading…

TLE

ActualizadoSource: Space-Track

Época: Sep 14, 2026, 13:57 UTC

1 67757U 26028B   26257.58186104  .00000148  00000-0  00000-0 0  9998
2 67757   0.1509 359.8302 0000472  59.8379 177.2947  1.00268764  2017

Sigue JAM-E JAM 1 en tiempo real con AllMySat

Download on the App Store